BEIDOU 18

Last updated on Wed May 15 2019 03:07:46 GMT+0000 (Coordinated Universal Time)

1 40748U 15037A 19134.37363399 -.00000101 00000-0 00000+0 0 9992 2 40748 55.8200 29.8633 0007417 291.8957 26.1032 1.86231283 25865

Satellite not in orbit

BEIDOU 18